When you browse on this site, cookies collect data to enhance your experience and personalize the content and advertising you see.
Visit our Privacy Policy to learn more. By continuing to use the site, you agree to this use of cookies and data.
  • In Schweiz
  • Länderverzeichnis
  • Für 7 Tage
  • Wassertemperatur
  • Satellitenkarten
  • Wetterkarte
  • Widgets
  • user-avatar
    Anmelden

    Stündliche Wetter Knapy

    Heute, 24 April, Mittwoch

    Zeit Temperatur Niederschläge Wind Luftdruck Luftfeuchtigkeit
    00:00 +11°C° 0 mm 6 m/S 745 mmHg 61%
    01:00 +10°C° 0 mm 5 m/S 745 mmHg 67%
    02:00 +9°C° 0 mm 5 m/S 745 mmHg 70%
    03:00 +9°C° 0 mm 5 m/S 745 mmHg 73%
    04:00 +10°C° 0 mm 4 m/S 745 mmHg 76%
    05:00 +9°C° 0 mm 5 m/S 745 mmHg 75%
    06:00 +10°C° 0 mm 5 m/S 745 mmHg 73%
    07:00 +13°C° 0 mm 6 m/S 745 mmHg 70%
    08:00 +14°C° 0 mm 6 m/S 745 mmHg 65%
    09:00 +16°C° 0 mm 7 m/S 745 mmHg 60%
    10:00 +17°C° 0 mm 7 m/S 745 mmHg 55%
    11:00 +18°C° 0 mm 7 m/S 745 mmHg 55%
    12:00 +19°C° 0 mm 6 m/S 745 mmHg 55%
    13:00 +19°C° 0 mm 5 m/S 745 mmHg 55%
    14:00 +19°C° 0 mm 5 m/S 745 mmHg 57%
    15:00 +19°C° 0 mm 4 m/S 745 mmHg 58%
    16:00 +19°C° 0 mm 4 m/S 745 mmHg 60%
    17:00 +19°C° 0 mm 4 m/S 745 mmHg 63%
    18:00 +18°C° 0 mm 3 m/S 745 mmHg 65%
    19:00 +17°C° 0 mm 3 m/S 745 mmHg 67%
    20:00 +15°C° 0 mm 4 m/S 745 mmHg 69%
    21:00 +15°C° 0 mm 4 m/S 745 mmHg 70%
    22:00 +14°C° 0 mm 4 m/S 745 mmHg 71%
    23:00 +14°C° 0 mm 5 m/S 745 mmHg 71%

    Morgen, 25 April, Donnerstag

    Zeit Temperatur Niederschläge Wind Luftdruck Luftfeuchtigkeit
    00:00 +14°C° 0 mm 5 m/S 745 mmHg 71%
    01:00 +13°C° 0 mm 5 m/S 745 mmHg 71%
    02:00 +13°C° 0 mm 5 m/S 744 mmHg 74%
    03:00 +13°C° 0 mm 5 m/S 744 mmHg 77%
    04:00 +12°C° 0 mm 5 m/S 744 mmHg 80%
    05:00 +13°C° 0 mm 5 m/S 744 mmHg 78%
    06:00 +15°C° 0 mm 5 m/S 744 mmHg 75%
    07:00 +16°C° 0 mm 5 m/S 744 mmHg 72%
    08:00 +17°C° 0 mm 5 m/S 745 mmHg 69%
    09:00 +19°C° 0 mm 5 m/S 745 mmHg 66%
    10:00 +20°C° 0 mm 5 m/S 745 mmHg 63%
    11:00 +20°C° 0 mm 4 m/S 745 mmHg 61%
    12:00 +21°C° 0 mm 4 m/S 745 mmHg 60%
    13:00 +21°C° 0 mm 3 m/S 745 mmHg 58%
    14:00 +22°C° 0 mm 3 m/S 745 mmHg 57%
    15:00 +23°C° 0 mm 2 m/S 745 mmHg 56%
    16:00 +24°C° 0 mm 2 m/S 745 mmHg 54%
    17:00 +23°C° 0 mm 2 m/S 745 mmHg 59%
    18:00 +22°C° 0 mm 1 m/S 745 mmHg 63%
    19:00 +20°C° 0 mm 1 m/S 745 mmHg 68%
    20:00 +19°C° 0.1 mm 1 m/S 745 mmHg 71%
    21:00 +17°C° 0.1 mm 2 m/S 745 mmHg 75%
    22:00 +17°C° 0.1 mm 2 m/S 745 mmHg 78%
    23:00 +16°C° 0 mm 2 m/S 744 mmHg 78%

    übermorgen, 26 April, Freitag

    Zeit Temperatur Niederschläge Wind Luftdruck Luftfeuchtigkeit
    00:00 +16°C° 0 mm 3 m/S 744 mmHg 78%
    01:00 +14°C° 0 mm 3 m/S 744 mmHg 78%
    02:00 +14°C° 0 mm 3 m/S 743 mmHg 79%
    03:00 +13°C° 0 mm 3 m/S 743 mmHg 79%
    04:00 +13°C° 0 mm 3 m/S 743 mmHg 80%
    05:00 +14°C° 0 mm 4 m/S 742 mmHg 76%
    06:00 +17°C° 0 mm 4 m/S 742 mmHg 72%
    07:00 +18°C° 0 mm 4 m/S 742 mmHg 67%
    08:00 +19°C° 0 mm 4 m/S 742 mmHg 62%
    09:00 +20°C° 0 mm 5 m/S 742 mmHg 58%
    10:00 +22°C° 0 mm 5 m/S 741 mmHg 53%
    11:00 +23°C° 0 mm 5 m/S 741 mmHg 50%
    12:00 +25°C° 0 mm 5 m/S 741 mmHg 47%
    13:00 +26°C° 0 mm 4 m/S 741 mmHg 44%
    14:00 +26°C° 0 mm 4 m/S 741 mmHg 44%
    15:00 +26°C° 0 mm 4 m/S 740 mmHg 45%
    16:00 +26°C° 0 mm 4 m/S 740 mmHg 45%
    17:00 +25°C° 0 mm 3 m/S 740 mmHg 50%
    18:00 +23°C° 0 mm 2 m/S 740 mmHg 55%
    19:00 +21°C° 0 mm 1 m/S 740 mmHg 61%
    20:00 +20°C° 0 mm 2 m/S 740 mmHg 62%
    21:00 +19°C° 0 mm 2 m/S 740 mmHg 64%
    22:00 +18°C° 0 mm 2 m/S 740 mmHg 66%
    23:00 +17°C° 0 mm 3 m/S 741 mmHg 74%

    27 April, Samstag

    Zeit Temperatur Niederschläge Wind Luftdruck Luftfeuchtigkeit
    00:00 +15°C° 0 mm 4 m/S 741 mmHg 82%
    01:00 +14°C° 0 mm 5 m/S 741 mmHg 90%
    02:00 +14°C° 0.2 mm 5 m/S 741 mmHg 90%
    03:00 +14°C° 0.2 mm 5 m/S 742 mmHg 89%
    04:00 +13°C° 0.2 mm 6 m/S 742 mmHg 89%
    05:00 +13°C° 0 mm 6 m/S 742 mmHg 88%
    06:00 +11°C° 0 mm 6 m/S 742 mmHg 87%
    07:00 +10°C° 0 mm 6 m/S 743 mmHg 85%
    08:00 +11°C° 0 mm 6 m/S 743 mmHg 82%
    09:00 +11°C° 0 mm 6 m/S 743 mmHg 79%
    10:00 +13°C° 0 mm 6 m/S 744 mmHg 76%
    11:00 +13°C° 0 mm 5 m/S 744 mmHg 75%
    12:00 +13°C° 0 mm 5 m/S 744 mmHg 74%
    13:00 +13°C° 0 mm 4 m/S 744 mmHg 73%
    14:00 +14°C° 0 mm 4 m/S 743 mmHg 70%
    15:00 +14°C° 0 mm 4 m/S 743 mmHg 68%
    16:00 +15°C° 0 mm 4 m/S 743 mmHg 65%
    17:00 +14°C° 0.1 mm 3 m/S 743 mmHg 68%
    18:00 +13°C° 0.1 mm 3 m/S 743 mmHg 71%
    19:00 +13°C° 0.1 mm 2 m/S 743 mmHg 75%
    20:00 +13°C° 0 mm 2 m/S 743 mmHg 74%
    21:00 +13°C° 0 mm 2 m/S 744 mmHg 73%
    22:00 +13°C° 0 mm 2 m/S 744 mmHg 73%
    23:00 +12°C° 0.1 mm 2 m/S 744 mmHg 74%

    28 April, Sonntag

    Zeit Temperatur Niederschläge Wind Luftdruck Luftfeuchtigkeit
    00:00 +12°C° 0.1 mm 2 m/S 744 mmHg 76%
    01:00 +10°C° 0.1 mm 2 m/S 744 mmHg 77%
    02:00 +10°C° 0 mm 2 m/S 744 mmHg 78%
    03:00 +10°C° 0 mm 2 m/S 744 mmHg 79%
    04:00 +10°C° 0 mm 2 m/S 744 mmHg 80%
    05:00 +10°C° 0 mm 2 m/S 745 mmHg 79%
    06:00 +11°C° 0 mm 3 m/S 745 mmHg 79%
    07:00 +11°C° 0 mm 4 m/S 745 mmHg 78%
    08:00 +12°C° 0 mm 4 m/S 745 mmHg 75%
    09:00 +13°C° 0 mm 4 m/S 746 mmHg 73%
    10:00 +14°C° 0 mm 4 m/S 746 mmHg 70%
    11:00 +14°C° 0.5 mm 4 m/S 746 mmHg 72%
    12:00 +14°C° 0.5 mm 4 m/S 746 mmHg 74%
    13:00 +14°C° 0.5 mm 4 m/S 746 mmHg 76%
    14:00 +14°C° 0.7 mm 4 m/S 746 mmHg 78%
    15:00 +13°C° 0.7 mm 4 m/S 746 mmHg 80%
    16:00 +13°C° 0.7 mm 4 m/S 746 mmHg 82%
    17:00 +13°C° 0.6 mm 3 m/S 746 mmHg 85%
    18:00 +12°C° 0.6 mm 3 m/S 746 mmHg 88%
    19:00 +11°C° 0.6 mm 3 m/S 746 mmHg 91%
    20:00 +11°C° 0.7 mm 3 m/S 746 mmHg 91%
    21:00 +11°C° 0.7 mm 4 m/S 746 mmHg 92%
    22:00 +11°C° 0.7 mm 4 m/S 746 mmHg 92%
    23:00 +10°C° 0.7 mm 5 m/S 746 mmHg 92%

    29 April, Montag

    Zeit Temperatur Niederschläge Wind Luftdruck Luftfeuchtigkeit
    00:00 +9°C° 0.7 mm 5 m/S 746 mmHg 92%
    01:00 +9°C° 0.7 mm 5 m/S 746 mmHg 93%
    02:00 +9°C° 0.4 mm 6 m/S 746 mmHg 93%
    03:00 +8°C° 0.4 mm 6 m/S 746 mmHg 93%
    04:00 +8°C° 0.4 mm 6 m/S 746 mmHg 93%
    05:00 +8°C° 0.1 mm 6 m/S 746 mmHg 93%
    06:00 +9°C° 0.1 mm 6 m/S 745 mmHg 92%
    07:00 +9°C° 0.1 mm 6 m/S 745 mmHg 92%
    08:00 +9°C° 0.1 mm 6 m/S 745 mmHg 92%
    09:00 +10°C° 0.1 mm 5 m/S 745 mmHg 91%
    10:00 +10°C° 0.1 mm 5 m/S 745 mmHg 91%
    11:00 +12°C° 0.3 mm 4 m/S 745 mmHg 91%
    12:00 +13°C° 0.3 mm 4 m/S 745 mmHg 91%
    13:00 +13°C° 0.3 mm 4 m/S 745 mmHg 90%
    14:00 +13°C° 0.6 mm 5 m/S 745 mmHg 90%
    15:00 +13°C° 0.6 mm 5 m/S 745 mmHg 90%
    16:00 +13°C° 0.6 mm 6 m/S 745 mmHg 89%
    17:00 +11°C° 0.8 mm 6 m/S 745 mmHg 90%
    18:00 +10°C° 0.8 mm 5 m/S 746 mmHg 91%
    19:00 +10°C° 0.8 mm 5 m/S 746 mmHg 92%
    20:00 +9°C° 0.1 mm 5 m/S 746 mmHg 92%
    21:00 +9°C° 0.1 mm 5 m/S 746 mmHg 92%
    22:00 +9°C° 0.1 mm 5 m/S 747 mmHg 92%
    23:00 +9°C° 0.1 mm 5 m/S 747 mmHg 92%
    Mehr zeigen